STARLINK-3090 (49132 NORAD) Tracking and Keplerian Element Data

This shows tracking and keplerian element data for the satellite.

Feedback or suggestion? Click here.




ElementValue
Catalog49132
NameSTARLINK-3090
Epoch Orbit367
Epoch Day300.58334491
Epoch Year2021
RAAN4.7486
Inclination69.9999
Eccentricity0.0003831
Argument of Perigee295.0939
Mean Anonmoly41.6898
Mean Motion15.69733889
Decay Rate-6.259E-05
L11 49132U 21082C 21300.58334491 -.00006259 00000-0 -50717-4 0 9993
L22 49132 69.9999 4.7486 0003831 295.0939 41.6898 15.69733889 3674

Live tracking and technical data element details for STARLINK-3090 (NORAD 49132). STARLINK-3090 can be tracked NOW for your location showing map with azimuth and elevation plus other details from your city location.

Track the satellite on the map from your city or location and see movement details for azimuth, elevation, latitude, longitude, range, height, and movement on the map or in text.







IsCatalogInMostPopularTable: catalog: 49132, numindb: 8
Update: records affected: 1



GetName: 49132 STARLINK-3090

Hit Count: updated at: Thu, 28 Oct 2021 11:22:28 GMT